Вернуться в каталог

ICEYE-X42

АктивенНаукаSSO
NORAD 62698·PAYLOAD·🇦🇪 UAE

Запущен Jan 14, 2025 с Vandenberg Space Force Base

Loading…

Ближайшие Пролёты (ближайшие 24 часа)

TLE

СвежийSource: Space-Track

Эпоха: Sep 14, 2026, 22:50 UTC

1 62698U 25009CT  26257.95167274  .00001632  00000-0  16723-3 0  9994
2 62698  97.7383 334.6340 0001298 103.2245 256.9119 14.91821106 90678

Отслеживайте ICEYE-X42 в реальном времени с AllMySat

Download on the App Store